When you browse on this site, cookies collect data to enhance your experience and personalize the content and advertising you see.
Visit our Privacy Policy to learn more. By continuing to use the site, you agree to this use of cookies and data.
  • In Czech Republic
  • List of Countries
  • For 7 days
  • Water Temperature
  • Satellite Maps
  • Weather Map
  • Weather Widgets
  • user-avatar
    Login

    Hourly Weather Cuapiaxtla

    Today, 19 January, Saturday

    Time Temperature Precipitation Wind Pressure Humidity
    00:00 +11°C° 0 mm 1 mps 568 mmHg 67%
    01:00 +10°C° 0 mm 1 mps 568 mmHg 69%
    02:00 +10°C° 0 mm 1 mps 567 mmHg 71%
    03:00 +10°C° 0 mm 1 mps 567 mmHg 72%
    04:00 +10°C° 0 mm 1 mps 567 mmHg 73%
    05:00 +10°C° 0 mm 1 mps 567 mmHg 74%
    06:00 +11°C° 0 mm 1 mps 568 mmHg 70%
    07:00 +13°C° 0 mm 1 mps 569 mmHg 65%
    08:00 +14°C° 0 mm 1 mps 570 mmHg 61%
    09:00 +16°C° 0 mm 2 mps 571 mmHg 54%
    10:00 +18°C° 0 mm 3 mps 572 mmHg 47%
    11:00 +20°C° 0 mm 4 mps 573 mmHg 40%
    12:00 +19°C° 0.1 mm 5 mps 573 mmHg 44%
    13:00 +17°C° 0.1 mm 5 mps 572 mmHg 48%
    14:00 +17°C° 0.1 mm 5 mps 572 mmHg 52%
    15:00 +15°C° 0.1 mm 5 mps 571 mmHg 62%
    16:00 +13°C° 0.1 mm 5 mps 571 mmHg 72%
    17:00 +10°C° 0.1 mm 5 mps 570 mmHg 83%
    18:00 +10°C° 0 mm 4 mps 570 mmHg 82%
    19:00 +8°C° 0 mm 4 mps 571 mmHg 80%
    20:00 +9°C° 0 mm 3 mps 571 mmHg 79%
    21:00 +8°C° 0 mm 3 mps 571 mmHg 79%
    22:00 +8°C° 0 mm 3 mps 571 mmHg 78%
    23:00 +7°C° 0 mm 3 mps 571 mmHg 78%

    Tomorrow, 20 January, Sunday

    Time Temperature Precipitation Wind Pressure Humidity
    00:00 +7°C° 0 mm 3 mps 571 mmHg 78%
    01:00 +7°C° 0 mm 3 mps 571 mmHg 78%
    02:00 +5°C° 0 mm 3 mps 570 mmHg 79%
    03:00 +5°C° 0 mm 4 mps 571 mmHg 79%
    04:00 +5°C° 0 mm 4 mps 571 mmHg 79%
    05:00 +4°C° 0 mm 4 mps 571 mmHg 79%
    06:00 +5°C° 0 mm 4 mps 571 mmHg 74%
    07:00 +5°C° 0 mm 4 mps 572 mmHg 69%
    08:00 +5°C° 0 mm 3 mps 572 mmHg 64%
    09:00 +8°C° 0 mm 4 mps 573 mmHg 56%
    10:00 +11°C° 0 mm 4 mps 574 mmHg 47%
    11:00 +13°C° 0 mm 4 mps 575 mmHg 38%
    12:00 +13°C° 0 mm 4 mps 575 mmHg 37%
    13:00 +14°C° 0 mm 4 mps 575 mmHg 36%
    14:00 +15°C° 0 mm 4 mps 574 mmHg 34%
    15:00 +13°C° 0 mm 4 mps 574 mmHg 40%
    16:00 +12°C° 0 mm 4 mps 573 mmHg 46%
    17:00 +10°C° 0 mm 4 mps 572 mmHg 52%
    18:00 +9°C° 0 mm 3 mps 572 mmHg 59%
    19:00 +8°C° 0 mm 3 mps 572 mmHg 65%
    20:00 +6°C° 0 mm 2 mps 571 mmHg 72%
    21:00 +6°C° 0 mm 2 mps 571 mmHg 72%
    22:00 +5°C° 0 mm 2 mps 571 mmHg 71%
    23:00 +5°C° 0 mm 2 mps 570 mmHg 70%

    Day after tomorrow, 21 January, Monday

    Time Temperature Precipitation Wind Pressure Humidity
    00:00 +6°C° 0 mm 1 mps 570 mmHg 65%
    01:00 +6°C° 0 mm 1 mps 570 mmHg 60%
    02:00 +5°C° 0 mm 1 mps 569 mmHg 56%
    03:00 +5°C° 0 mm 1 mps 569 mmHg 51%
    04:00 +5°C° 0 mm 1 mps 569 mmHg 46%
    05:00 +5°C° 0 mm 1 mps 569 mmHg 41%
    06:00 +7°C° 0 mm 1 mps 570 mmHg 36%
    07:00 +9°C° 0 mm 1 mps 571 mmHg 30%
    08:00 +11°C° 0 mm 1 mps 573 mmHg 24%
    09:00 +14°C° 0 mm 1 mps 574 mmHg 20%
    10:00 +16°C° 0 mm 1 mps 575 mmHg 15%
    11:00 +20°C° 0 mm 1 mps 576 mmHg 11%
    12:00 +21°C° 0 mm 1 mps 575 mmHg 10%
    13:00 +20°C° 0 mm 2 mps 574 mmHg 9%
    14:00 +21°C° 0 mm 2 mps 574 mmHg 9%
    15:00 +19°C° 0 mm 2 mps 573 mmHg 12%
    16:00 +18°C° 0 mm 2 mps 572 mmHg 15%
    17:00 +16°C° 0 mm 2 mps 571 mmHg 18%
    18:00 +15°C° 0 mm 2 mps 571 mmHg 19%
    19:00 +13°C° 0 mm 2 mps 570 mmHg 20%
    20:00 +12°C° 0 mm 1 mps 570 mmHg 21%
    21:00 +11°C° 0 mm 1 mps 570 mmHg 23%
    22:00 +10°C° 0 mm 1 mps 569 mmHg 26%
    23:00 +10°C° 0 mm 1 mps 569 mmHg 28%

    22 January, Tuesday

    Time Temperature Precipitation Wind Pressure Humidity
    00:00 +9°C° 0 mm 1 mps 568 mmHg 30%
    01:00 +8°C° 0 mm 1 mps 567 mmHg 32%
    02:00 +8°C° 0 mm 1 mps 566 mmHg 33%
    03:00 +7°C° 0 mm 1 mps 566 mmHg 34%
    04:00 +7°C° 0 mm 1 mps 566 mmHg 34%
    05:00 +7°C° 0 mm 1 mps 566 mmHg 35%
    06:00 +8°C° 0 mm 1 mps 567 mmHg 33%
    07:00 +10°C° 0 mm 1 mps 568 mmHg 30%
    08:00 +12°C° 0 mm 1 mps 570 mmHg 28%
    09:00 +14°C° 0 mm 2 mps 570 mmHg 24%
    10:00 +16°C° 0 mm 2 mps 571 mmHg 20%
    11:00 +18°C° 0 mm 3 mps 572 mmHg 16%
    12:00 +19°C° 0 mm 3 mps 571 mmHg 16%
    13:00 +19°C° 0 mm 4 mps 571 mmHg 16%
    14:00 +20°C° 0 mm 5 mps 570 mmHg 16%
    15:00 +18°C° 0 mm 4 mps 570 mmHg 18%
    16:00 +17°C° 0 mm 4 mps 569 mmHg 21%
    17:00 +14°C° 0 mm 4 mps 568 mmHg 24%
    18:00 +13°C° 0 mm 3 mps 568 mmHg 28%
    19:00 +11°C° 0 mm 3 mps 568 mmHg 32%
    20:00 +10°C° 0 mm 2 mps 568 mmHg 36%
    21:00 +9°C° 0 mm 2 mps 567 mmHg 40%
    22:00 +9°C° 0 mm 2 mps 567 mmHg 45%
    23:00 +10°C° 0 mm 1 mps 567 mmHg 49%

    23 January, Wednesday

    Time Temperature Precipitation Wind Pressure Humidity
    00:00 +9°C° 0 mm 1 mps 567 mmHg 52%
    01:00 +9°C° 0 mm 1 mps 566 mmHg 54%
    02:00 +7°C° 0 mm 2 mps 566 mmHg 56%
    03:00 +8°C° 0 mm 1 mps 566 mmHg 58%
    04:00 +8°C° 0 mm 1 mps 566 mmHg 61%
    05:00 +7°C° 0 mm 1 mps 566 mmHg 63%
    06:00 +9°C° 0 mm 1 mps 567 mmHg 61%
    07:00 +9°C° 0 mm 2 mps 568 mmHg 58%
    08:00 +12°C° 0 mm 2 mps 569 mmHg 56%
    09:00 +13°C° 0 mm 3 mps 570 mmHg 51%
    10:00 +16°C° 0 mm 3 mps 570 mmHg 46%
    11:00 +18°C° 0 mm 4 mps 571 mmHg 42%
    12:00 +17°C° 0 mm 5 mps 571 mmHg 40%
    13:00 +19°C° 0 mm 6 mps 570 mmHg 38%
    14:00 +18°C° 0 mm 7 mps 570 mmHg 36%
    15:00 +17°C° 0 mm 7 mps 569 mmHg 39%
    16:00 +16°C° 0 mm 7 mps 569 mmHg 42%
    17:00 +14°C° 0 mm 7 mps 569 mmHg 46%
    18:00 +13°C° 0 mm 6 mps 569 mmHg 50%
    19:00 +12°C° 0 mm 5 mps 569 mmHg 54%
    20:00 +11°C° 0 mm 3 mps 569 mmHg 58%
    21:00 +11°C° 0 mm 4 mps 569 mmHg 60%
    22:00 +11°C° 0 mm 4 mps 569 mmHg 62%
    23:00 +10°C° 0 mm 4 mps 568 mmHg 65%

    24 January, Thursday

    Time Temperature Precipitation Wind Pressure Humidity
    00:00 +10°C° 0 mm 4 mps 568 mmHg 68%
    01:00 +8°C° 0 mm 4 mps 567 mmHg 70%
    02:00 +7°C° 0 mm 4 mps 567 mmHg 73%
    03:00 +8°C° 0 mm 3 mps 567 mmHg 77%
    04:00 +7°C° 0 mm 3 mps 567 mmHg 81%
    05:00 +7°C° 0 mm 3 mps 567 mmHg 84%
    06:00 +8°C° 0 mm 3 mps 568 mmHg 81%
    07:00 +9°C° 0 mm 3 mps 569 mmHg 78%
    08:00 +10°C° 0 mm 4 mps 569 mmHg 75%
    09:00 +12°C° 0 mm 4 mps 570 mmHg 65%
    10:00 +14°C° 0 mm 5 mps 571 mmHg 54%
    11:00 +16°C° 0 mm 5 mps 572 mmHg 43%
    12:00 +17°C° 0 mm 6 mps 572 mmHg 41%
    13:00 +17°C° 0 mm 6 mps 571 mmHg 38%
    14:00 +18°C° 0 mm 7 mps 571 mmHg 36%
    15:00 +17°C° 0 mm 6 mps 570 mmHg 40%
    16:00 +15°C° 0 mm 6 mps 570 mmHg 43%
    17:00 +14°C° 0 mm 5 mps 569 mmHg 46%
    18:00 +13°C° 0 mm 4 mps 569 mmHg 49%
    19:00 +12°C° 0 mm 4 mps 569 mmHg 52%
    20:00 +11°C° 0 mm 3 mps 569 mmHg 56%
    21:00 +10°C° 0 mm 3 mps 569 mmHg 56%
    22:00 +10°C° 0 mm 3 mps 569 mmHg 57%
    23:00 +10°C° 0 mm 3 mps 568 mmHg 58%
    Show more